Clearfield, PA

9:58 PM EST on January 22, 2017 (GMT -0500)
Clearfield-Lawrence

Weather History for KFIG - April, 2014

Change the Weather History Date:

Monday, April 7, 2014

  Actual Average (KDUJ) Record (KDUJ)
Temperature  
Mean Temperature 39 °F -  
Max Temperature 44 °F 50 °F 79 °F (1991)
Min Temperature 34 °F 31 °F 8 °F (1982)
Degree Days  
Heating Degree Days 26    
Moisture  
Dew Point 33 °F    
Average Humidity 83    
Maximum Humidity 100    
Minimum Humidity 38    
Precipitation  
Precipitation 0.37 in - - ()
Sea Level Pressure  
Sea Level Pressure 29.87 in    
Wind  
Wind Speed 7 mph (East)    
Max Wind Speed 10 mph    
Max Gust Speed 16 mph    
Visibility 8 miles    
Events Rain    
Averages and records for this station are not official NWS values.
T = Trace of Precipitation, MM = Missing Value Source: NWS Daily Summary

Daily Weather History Graph

Daily Weather History Graph

Search for Another Location

Airport or City:

Trip Planner

Search our weather history database for the weather conditions in past years. The results will help you decide how hot, cold, wet, or windy it might be!

Date:

Astronomy

Apr. 07, 2014 Rise Set
Actual Time 6:47 AM EDT 7:44 PM EDT
Civil Twilight 6:19 AM EDT 8:13 PM EDT
Nautical Twilight 5:45 AM EDT 8:46 PM EDT
Astronomical Twilight 5:11 AM EDT 9:21 PM EDT
Moon 12:40 PM EDT (4/7) 2:22 AM EDT (4/7)
Length of Visible Light 13h 53m
Length of Day
12h 57m
First Quarter, 53% of the Moon is Illuminated
Apr 7
First Quarter
Apr 15
Full
Apr 22
Last Quarter
Apr 29
New
May 6
First Quarter

Hourly Weather History & Observations

Time (EDT) Temp. Windchill Dew Point Humidity Pressure Visibility Wind Dir Wind Speed Gust Speed Precip Events Conditions
12:54 AM 39.0 °F 35.7 °F 21.9 °F 50% 30.11 in 10.0 mi East 4.6 mph - N/A   Clear
1:54 AM 37.0 °F 32.4 °F 23.0 °F 57% 30.09 in 10.0 mi NE 5.8 mph - N/A   Clear
2:54 AM 36.0 °F 30.3 °F 21.9 °F 57% 30.08 in 10.0 mi NNE 6.9 mph - N/A   Clear
3:54 AM 37.0 °F 30.4 °F 23.0 °F 57% 30.05 in 10.0 mi NE 9.2 mph - N/A   Clear
4:54 AM 37.0 °F 29.8 °F 23.0 °F 57% 30.04 in 10.0 mi ENE 10.4 mph - N/A   Clear
5:54 AM 34.0 °F 26.6 °F 23.0 °F 64% 30.03 in 10.0 mi NE 9.2 mph - N/A   Clear
6:54 AM 36.0 °F 29.0 °F 23.0 °F 59% 30.04 in 10.0 mi NE 9.2 mph - N/A   Clear
7:54 AM 37.9 °F 31.5 °F 23.0 °F 55% 30.05 in 10.0 mi NE 9.2 mph - N/A   Clear
8:54 AM 39.9 °F 35.1 °F 23.0 °F 51% 30.02 in 10.0 mi NE 6.9 mph - N/A   Clear
9:54 AM 44.1 °F 42.5 °F 19.9 °F 38% 30.01 in 10.0 mi Variable 3.5 mph - N/A   Overcast
10:54 AM 39.0 °F 34.8 °F 32.0 °F 76% 30.04 in 10.0 mi SE 5.8 mph 16.1 mph 0.01 in Rain Light Rain
11:54 AM 37.0 °F 29.8 °F 35.1 °F 93% 30.01 in 3.0 mi East 10.4 mph - 0.14 in Rain Rain
12:28 PM 36.0 °F 30.3 °F 35.1 °F 97% 29.93 in 4.0 mi ENE 6.9 mph - 0.05 in Rain Light Rain
12:54 PM 36.0 °F 29.6 °F 36.0 °F 100% 29.95 in 2.5 mi East 8.1 mph - 0.08 in Rain Rain
1:05 PM 37.0 °F 29.8 °F 36.0 °F 96% 29.91 in 4.0 mi ENE 10.4 mph - 0.01 in Rain Light Rain
1:40 PM 37.0 °F 31.6 °F 37.0 °F 100% 29.88 in 4.0 mi Variable 6.9 mph - 0.02 in Rain Light Rain
1:54 PM 37.0 °F 33.3 °F 37.0 °F 100% 29.92 in 4.0 mi ENE 4.6 mph - 0.02 in Rain Light Rain
2:25 PM 37.9 °F 32.7 °F 37.0 °F 97% 29.88 in 5.0 mi Variable 6.9 mph - 0.02 in Rain Light Rain
2:46 PM 37.9 °F 32.1 °F 37.0 °F 97% 29.85 in 5.0 mi East 8.1 mph 16.1 mph 0.03 in Rain Light Rain
2:54 PM 37.9 °F 31.5 °F 37.0 °F 97% 29.90 in 5.0 mi East 9.2 mph - 0.04 in Rain Light Rain
3:27 PM 39.0 °F 32.8 °F 37.0 °F 93% 29.82 in 10.0 mi East 9.2 mph - 0.00 in Rain Light Rain
4:45 PM 39.9 °F 33.4 °F 39.0 °F 97% 29.76 in 8.0 mi East 10.4 mph - 0.02 in Rain Light Rain
4:54 PM 39.9 °F 34.5 °F 37.9 °F 93% 29.78 in 10.0 mi East 8.1 mph - 0.02 in Rain Light Rain
5:30 PM 39.9 °F 35.1 °F 39.0 °F 97% 29.71 in 10.0 mi East 6.9 mph 16.1 mph 0.00 in   Overcast
5:46 PM 39.9 °F 34.5 °F 39.0 °F 97% 29.71 in 10.0 mi ESE 8.1 mph - 0.00 in   Overcast
5:54 PM 39.9 °F 35.1 °F 39.0 °F 97% 29.74 in 10.0 mi ESE 6.9 mph - 0.00 in   Overcast
6:36 PM 39.9 °F 35.8 °F 39.0 °F 97% 29.66 in 9.0 mi ESE 5.8 mph - N/A   Overcast
6:54 PM 39.9 °F 36.7 °F 39.0 °F 97% 29.68 in 10.0 mi Variable 4.6 mph - N/A   Overcast
7:54 PM 41.0 °F 37.1 °F 39.9 °F 96% 29.65 in 10.0 mi ESE 5.8 mph - N/A   Overcast
8:54 PM 41.0 °F 38.0 °F 39.9 °F 96% 29.63 in 10.0 mi ESE 4.6 mph - 0.00 in Rain Light Rain
9:54 PM 42.1 °F 39.2 °F 41.0 °F 96% 29.59 in 10.0 mi East 4.6 mph - 0.00 in   Overcast
10:54 PM 42.1 °F - 42.1 °F 100% 29.56 in 5.0 mi Calm Calm - 0.06 in Rain Rain
11:54 PM 43.0 °F 41.3 °F 42.1 °F 97% 29.54 in 10.0 mi SE 3.5 mph - 0.00 in   Overcast